Year,Month,Day,Hour,Minute,Value (Times are PST for temperature in C)
2011,08,17,00,00,11.80
2011,08,17,00,01,11.90
2011,08,17,00,02,11.90
2011,08,17,00,03,11.90
2011,08,17,00,04,11.90
2011,08,17,00,05,12.00
2011,08,17,00,06,12.00
2011,08,17,00,07,12.00
2011,08,17,00,08,12.00
2011,08,17,00,09,12.10
2011,08,17,00,10,12.10
2011,08,17,00,11,12.10
2011,08,17,00,12,12.10
2011,08,17,00,13,12.10
2011,08,17,00,14,12.10
2011,08,17,00,15,12.10
2011,08,17,00,16,12.10
2011,08,17,00,17,12.10
2011,08,17,00,18,12.10
2011,08,17,00,19,12.10
2011,08,17,00,20,12.10
2011,08,17,00,21,12.10
2011,08,17,00,22,12.10
2011,08,17,00,23,12.10
2011,08,17,00,24,12.10
2011,08,17,00,25,12.10
2011,08,17,00,26,12.10
2011,08,17,00,27,12.10
2011,08,17,00,28,12.10
2011,08,17,00,29,12.10
2011,08,17,00,30,12.10
2011,08,17,00,31,12.10
2011,08,17,00,32,12.10
2011,08,17,00,33,12.10
2011,08,17,00,34,12.10
2011,08,17,00,35,12.00
2011,08,17,00,36,12.00
2011,08,17,00,37,12.00
2011,08,17,00,38,12.00
2011,08,17,00,39,11.90
2011,08,17,00,40,11.90
2011,08,17,00,41,11.90
2011,08,17,00,42,11.80
2011,08,17,00,43,11.80
2011,08,17,00,44,11.80
2011,08,17,00,45,11.80
2011,08,17,00,46,11.80
2011,08,17,00,47,11.70
2011,08,17,00,48,11.70
2011,08,17,00,49,11.70
2011,08,17,00,50,11.70
2011,08,17,00,51,11.60
2011,08,17,00,52,11.60
2011,08,17,00,53,11.60
2011,08,17,00,54,11.60
2011,08,17,00,55,11.60
2011,08,17,00,56,11.60
2011,08,17,00,57,11.60
2011,08,17,00,58,11.60
2011,08,17,00,59,11.60
2011,08,17,01,00,11.60
2011,08,17,01,01,11.60
2011,08,17,01,02,11.60
2011,08,17,01,03,11.60
2011,08,17,01,04,11.60
2011,08,17,01,05,11.60
2011,08,17,01,06,11.60
2011,08,17,01,07,11.60
2011,08,17,01,08,11.60
2011,08,17,01,09,11.60
2011,08,17,01,10,11.60
2011,08,17,01,11,11.60
2011,08,17,01,12,11.60
2011,08,17,01,13,11.60
2011,08,17,01,14,11.70
2011,08,17,01,15,11.70
2011,08,17,01,16,11.70
2011,08,17,01,17,11.70
2011,08,17,01,18,11.70
2011,08,17,01,19,11.70
2011,08,17,01,20,11.70
2011,08,17,01,21,11.70
2011,08,17,01,22,11.80
2011,08,17,01,23,11.80
2011,08,17,01,24,11.80
2011,08,17,01,25,11.80
2011,08,17,01,26,11.80
2011,08,17,01,27,11.80
2011,08,17,01,28,11.80
2011,08,17,01,29,11.80
2011,08,17,01,30,11.80
2011,08,17,01,31,11.80
2011,08,17,01,32,11.80
2011,08,17,01,33,11.80
2011,08,17,01,34,11.80
2011,08,17,01,35,11.80
2011,08,17,01,36,11.80
2011,08,17,01,37,11.80
2011,08,17,01,38,11.80
2011,08,17,01,39,11.80
2011,08,17,01,40,11.80
2011,08,17,01,41,11.80
2011,08,17,01,42,11.80
2011,08,17,01,43,11.80
2011,08,17,01,44,11.80
2011,08,17,01,45,11.80
2011,08,17,01,46,11.80
2011,08,17,01,47,11.80
2011,08,17,01,48,11.80
2011,08,17,01,49,11.80
2011,08,17,01,50,11.80
2011,08,17,01,51,11.80
2011,08,17,01,52,11.80
2011,08,17,01,53,11.80
2011,08,17,01,54,11.80
2011,08,17,01,55,11.80
2011,08,17,01,56,11.80
2011,08,17,01,57,11.80
2011,08,17,01,58,11.80
2011,08,17,01,59,11.80
2011,08,17,02,00,11.80
2011,08,17,02,01,11.80
2011,08,17,02,02,11.80
2011,08,17,02,03,11.80
2011,08,17,02,04,11.80
2011,08,17,02,05,11.80
2011,08,17,02,06,11.80
2011,08,17,02,07,11.80
2011,08,17,02,08,11.70
2011,08,17,02,09,11.70
2011,08,17,02,10,11.70
2011,08,17,02,11,11.60
2011,08,17,02,12,11.60
2011,08,17,02,13,11.60
2011,08,17,02,14,11.60
2011,08,17,02,15,11.60
2011,08,17,02,16,11.60
2011,08,17,02,17,11.50
2011,08,17,02,18,11.40
2011,08,17,02,19,11.40
2011,08,17,02,20,11.40
2011,08,17,02,21,11.40
2011,08,17,02,22,11.40
2011,08,17,02,23,11.40
2011,08,17,02,24,11.40
2011,08,17,02,25,11.40
2011,08,17,02,26,11.40
2011,08,17,02,27,11.40
2011,08,17,02,28,11.40
2011,08,17,02,29,11.40
2011,08,17,02,30,11.30
2011,08,17,02,31,11.30
2011,08,17,02,32,11.30
2011,08,17,02,33,11.30
2011,08,17,02,34,11.30
2011,08,17,02,35,11.30
2011,08,17,02,36,11.30
2011,08,17,02,37,11.30
2011,08,17,02,38,11.30
2011,08,17,02,39,11.30
2011,08,17,02,40,11.20
2011,08,17,02,41,11.20
2011,08,17,02,42,11.20
2011,08,17,02,43,11.20
2011,08,17,02,44,11.20
2011,08,17,02,45,11.20
2011,08,17,02,46,11.10
2011,08,17,02,47,11.10
2011,08,17,02,48,11.10
2011,08,17,02,49,11.10
2011,08,17,02,50,11.10
2011,08,17,02,51,11.10
2011,08,17,02,52,11.20
2011,08,17,02,53,11.20
2011,08,17,02,54,11.20
2011,08,17,02,55,11.20
2011,08,17,02,56,11.30
2011,08,17,02,57,11.30
2011,08,17,02,58,11.30
2011,08,17,02,59,11.30
2011,08,17,03,00,11.30
2011,08,17,03,01,11.30
2011,08,17,03,02,11.30
2011,08,17,03,03,11.40
2011,08,17,03,04,11.40
2011,08,17,03,05,11.40
2011,08,17,03,06,11.40
2011,08,17,03,07,11.40
2011,08,17,03,08,11.40
2011,08,17,03,09,11.30
2011,08,17,03,10,11.30
2011,08,17,03,11,11.30
2011,08,17,03,12,11.30
2011,08,17,03,13,11.30
2011,08,17,03,14,11.20
2011,08,17,03,15,11.20
2011,08,17,03,16,11.20
2011,08,17,03,17,11.10
2011,08,17,03,18,11.10
2011,08,17,03,19,11.10
2011,08,17,03,20,11.10
2011,08,17,03,21,11.10
2011,08,17,03,22,10.90
2011,08,17,03,23,10.90
2011,08,17,03,24,10.90
2011,08,17,03,25,10.90
2011,08,17,03,26,10.90
2011,08,17,03,27,10.90
2011,08,17,03,28,10.90
2011,08,17,03,29,10.90
2011,08,17,03,30,10.90
2011,08,17,03,31,10.90
2011,08,17,03,32,10.90
2011,08,17,03,33,10.90
2011,08,17,03,34,10.90
2011,08,17,03,35,10.90
2011,08,17,03,36,11.00
2011,08,17,03,37,11.10
2011,08,17,03,38,11.10
2011,08,17,03,39,11.10
2011,08,17,03,40,11.10
2011,08,17,03,41,11.10
2011,08,17,03,42,11.10
2011,08,17,03,43,11.10
2011,08,17,03,44,11.10
2011,08,17,03,45,11.10
2011,08,17,03,46,11.10
2011,08,17,03,47,11.10
2011,08,17,03,48,11.10
2011,08,17,03,49,11.10
2011,08,17,03,50,11.10
2011,08,17,03,51,11.10
2011,08,17,03,52,11.10
2011,08,17,03,53,11.10
2011,08,17,03,54,11.20
2011,08,17,03,55,11.20
2011,08,17,03,56,11.20
2011,08,17,03,57,11.20
2011,08,17,03,58,11.20
2011,08,17,03,59,11.20
2011,08,17,04,00,11.10
2011,08,17,04,01,11.10
2011,08,17,04,02,11.10
2011,08,17,04,03,11.10
2011,08,17,04,04,11.00
2011,08,17,04,05,10.90
2011,08,17,04,06,10.90
2011,08,17,04,07,10.90
2011,08,17,04,08,10.80
2011,08,17,04,09,10.70
2011,08,17,04,10,10.70
2011,08,17,04,11,10.60
2011,08,17,04,12,10.60
2011,08,17,04,13,10.60
2011,08,17,04,14,10.60
2011,08,17,04,15,10.50
2011,08,17,04,16,10.40
2011,08,17,04,17,10.40
2011,08,17,04,18,10.40
2011,08,17,04,19,10.40
2011,08,17,04,20,10.30
2011,08,17,04,21,10.30
2011,08,17,04,22,10.30
2011,08,17,04,23,10.30
2011,08,17,04,24,10.30
2011,08,17,04,25,10.20
2011,08,17,04,26,10.20
2011,08,17,04,27,10.20
2011,08,17,04,28,10.20
2011,08,17,04,29,10.20
2011,08,17,04,30,10.20
2011,08,17,04,31,10.20
2011,08,17,04,32,10.20
2011,08,17,04,33,10.20
2011,08,17,04,34,10.20
2011,08,17,04,35,10.20
2011,08,17,04,36,10.20
2011,08,17,04,37,10.30
2011,08,17,04,38,10.30
2011,08,17,04,39,10.20
2011,08,17,04,40,10.30
2011,08,17,04,41,10.20
2011,08,17,04,42,10.20
2011,08,17,04,43,10.20
2011,08,17,04,44,10.20
2011,08,17,04,45,10.20
2011,08,17,04,46,10.10
2011,08,17,04,47,10.10
2011,08,17,04,48,10.10
2011,08,17,04,49,10.10
2011,08,17,04,50,10.10
2011,08,17,04,51,10.10
2011,08,17,04,52,10.10
2011,08,17,04,53,10.00
2011,08,17,04,54,9.90
2011,08,17,04,55,9.90
2011,08,17,04,56,9.90
2011,08,17,04,57,9.90
2011,08,17,04,58,9.90
2011,08,17,04,59,9.90
2011,08,17,05,00,9.90
2011,08,17,05,01,9.90
2011,08,17,05,02,9.90
2011,08,17,05,03,9.90
2011,08,17,05,04,9.90
2011,08,17,05,05,9.90
2011,08,17,05,06,9.80
2011,08,17,05,07,9.80
2011,08,17,05,08,9.80
2011,08,17,05,09,9.80
2011,08,17,05,10,9.80
2011,08,17,05,11,9.80
2011,08,17,05,12,9.80
2011,08,17,05,13,9.80
2011,08,17,05,14,9.80
2011,08,17,05,15,9.90
2011,08,17,05,16,9.90
2011,08,17,05,17,9.90
2011,08,17,05,18,9.90
2011,08,17,05,19,9.90
2011,08,17,05,20,9.90
2011,08,17,05,21,9.90
2011,08,17,05,22,9.90
2011,08,17,05,23,9.90
2011,08,17,05,24,9.90
2011,08,17,05,25,9.90
2011,08,17,05,26,9.90
2011,08,17,05,27,9.90
2011,08,17,05,28,9.90
2011,08,17,05,29,9.90
2011,08,17,05,30,9.90
2011,08,17,05,31,9.90
2011,08,17,05,32,9.90
2011,08,17,05,33,9.90
2011,08,17,05,34,9.90
2011,08,17,05,35,9.90
2011,08,17,05,36,9.90
2011,08,17,05,37,9.90
2011,08,17,05,38,9.90
2011,08,17,05,39,9.90
2011,08,17,05,40,9.90
2011,08,17,05,41,9.90
2011,08,17,05,42,9.90
2011,08,17,05,43,9.90
2011,08,17,05,44,9.90
2011,08,17,05,45,9.90
2011,08,17,05,46,9.90
2011,08,17,05,47,9.90
2011,08,17,05,48,9.90
2011,08,17,05,49,9.90
2011,08,17,05,50,9.90
2011,08,17,05,51,9.90
2011,08,17,05,52,9.90
2011,08,17,05,53,9.90
2011,08,17,05,54,9.90
2011,08,17,05,55,10.00
2011,08,17,05,56,10.10
2011,08,17,05,57,10.10
2011,08,17,05,58,10.10
2011,08,17,05,59,10.10
2011,08,17,06,00,10.10
2011,08,17,06,01,10.10
2011,08,17,06,02,10.10
2011,08,17,06,03,10.10
2011,08,17,06,04,10.10
2011,08,17,06,05,10.10
2011,08,17,06,06,10.10
2011,08,17,06,07,10.20
2011,08,17,06,08,10.20
2011,08,17,06,09,10.20
2011,08,17,06,10,10.20
2011,08,17,06,11,10.20
2011,08,17,06,12,10.20
2011,08,17,06,13,10.10
2011,08,17,06,14,10.10
2011,08,17,06,15,10.10
2011,08,17,06,16,10.10
2011,08,17,06,17,10.10
2011,08,17,06,18,10.10
2011,08,17,06,19,10.10
2011,08,17,06,20,10.10
2011,08,17,06,21,10.10
2011,08,17,06,22,10.10
2011,08,17,06,23,10.10
2011,08,17,06,24,10.10
2011,08,17,06,25,10.10
2011,08,17,06,26,10.20
2011,08,17,06,27,10.20
2011,08,17,06,28,10.20
2011,08,17,06,29,10.20
2011,08,17,06,30,10.20
2011,08,17,06,31,10.20
2011,08,17,06,32,10.20
2011,08,17,06,33,10.20
2011,08,17,06,34,10.20
2011,08,17,06,35,10.20
2011,08,17,06,36,10.20
2011,08,17,06,37,10.20
2011,08,17,06,38,10.30
2011,08,17,06,39,10.30
2011,08,17,06,40,10.30
2011,08,17,06,41,10.30
2011,08,17,06,42,10.30
2011,08,17,06,43,10.30
2011,08,17,06,44,10.30
2011,08,17,06,45,10.30
2011,08,17,06,46,10.30
2011,08,17,06,47,10.30
2011,08,17,06,48,10.30
2011,08,17,06,49,10.30
2011,08,17,06,50,10.30
2011,08,17,06,51,10.30
2011,08,17,06,52,10.30
2011,08,17,06,53,10.30
2011,08,17,06,54,10.20
2011,08,17,06,55,10.20
2011,08,17,06,56,10.20
2011,08,17,06,57,10.20
2011,08,17,06,58,10.10
2011,08,17,06,59,10.10
2011,08,17,07,00,10.10
2011,08,17,07,01,10.10
2011,08,17,07,02,10.10
2011,08,17,07,03,10.10
2011,08,17,07,04,10.10
2011,08,17,07,05,10.10
2011,08,17,07,06,10.10
2011,08,17,07,07,10.10
2011,08,17,07,08,10.10
2011,08,17,07,09,10.20
2011,08,17,07,10,10.20
2011,08,17,07,11,10.20
2011,08,17,07,12,10.20
2011,08,17,07,13,10.20
2011,08,17,07,14,10.30
2011,08,17,07,15,10.30
2011,08,17,07,16,10.40
2011,08,17,07,17,10.40
2011,08,17,07,18,10.40
2011,08,17,07,19,10.50
2011,08,17,07,20,10.60
2011,08,17,07,21,10.60
2011,08,17,07,22,10.60
2011,08,17,07,23,10.60
2011,08,17,07,24,10.70
2011,08,17,07,25,10.70
2011,08,17,07,26,10.70
2011,08,17,07,27,10.80
2011,08,17,07,28,10.80
2011,08,17,07,29,10.90
2011,08,17,07,30,10.90
2011,08,17,07,31,10.90
2011,08,17,07,32,11.00
2011,08,17,07,33,11.10
2011,08,17,07,34,11.10
2011,08,17,07,35,11.10
2011,08,17,07,36,11.20
2011,08,17,07,37,11.20
2011,08,17,07,38,11.20
2011,08,17,07,39,11.30
2011,08,17,07,40,11.30
2011,08,17,07,41,11.30
2011,08,17,07,42,11.40
2011,08,17,07,43,11.40
2011,08,17,07,44,11.40
2011,08,17,07,45,11.50
2011,08,17,07,46,11.60
2011,08,17,07,47,11.60
2011,08,17,07,48,11.60
2011,08,17,07,49,11.70
2011,08,17,07,50,11.70
2011,08,17,07,51,11.80
2011,08,17,07,52,11.80
2011,08,17,07,53,11.90
2011,08,17,07,54,11.90
2011,08,17,07,55,12.00
2011,08,17,07,56,12.00
2011,08,17,07,57,12.10
2011,08,17,07,58,12.20
2011,08,17,07,59,12.20
2011,08,17,08,00,12.30
2011,08,17,08,01,12.30
2011,08,17,08,02,12.40
2011,08,17,08,03,12.50
2011,08,17,08,04,12.50
2011,08,17,08,05,12.60
2011,08,17,08,06,12.70
2011,08,17,08,07,12.70
2011,08,17,08,08,12.80
2011,08,17,08,09,12.80
2011,08,17,08,10,12.90
2011,08,17,08,11,13.00
2011,08,17,08,12,13.10
2011,08,17,08,13,13.10
2011,08,17,08,14,13.20
2011,08,17,08,15,13.30
2011,08,17,08,16,13.40
2011,08,17,08,17,13.50
2011,08,17,08,18,13.60
2011,08,17,08,19,13.70
2011,08,17,08,20,13.70
2011,08,17,08,21,13.80
2011,08,17,08,22,13.90
2011,08,17,08,23,13.90
2011,08,17,08,24,14.00
2011,08,17,08,25,14.00
2011,08,17,08,26,14.10
2011,08,17,08,27,14.10
2011,08,17,08,28,14.20
2011,08,17,08,29,14.20
2011,08,17,08,30,14.20
2011,08,17,08,31,14.30
2011,08,17,08,32,14.40
2011,08,17,08,33,14.40
2011,08,17,08,34,14.50
2011,08,17,08,35,14.60
2011,08,17,08,36,14.60
2011,08,17,08,37,14.70
2011,08,17,08,38,14.80
2011,08,17,08,39,14.80
2011,08,17,08,40,14.80
2011,08,17,08,41,14.90
2011,08,17,08,42,14.90
2011,08,17,08,43,15.00
2011,08,17,08,44,15.00
2011,08,17,08,45,15.10
2011,08,17,08,46,15.20
2011,08,17,08,47,15.20
2011,08,17,08,48,15.30
2011,08,17,08,49,15.40
2011,08,17,08,50,15.50
2011,08,17,08,51,15.60
2011,08,17,08,52,15.70
2011,08,17,08,53,15.80
2011,08,17,08,54,16.00
2011,08,17,08,55,16.10
2011,08,17,08,56,16.20
2011,08,17,08,57,16.40
2011,08,17,08,58,16.40
2011,08,17,08,59,16.60
2011,08,17,09,00,16.70
2011,08,17,09,01,16.70
2011,08,17,09,02,16.80
2011,08,17,09,03,16.90
2011,08,17,09,04,17.00
2011,08,17,09,05,17.00
2011,08,17,09,06,17.10
2011,08,17,09,07,17.20
2011,08,17,09,08,17.30
2011,08,17,09,09,17.30
2011,08,17,09,10,17.40
2011,08,17,09,11,17.40
2011,08,17,09,12,17.50
2011,08,17,09,13,17.50
2011,08,17,09,14,17.60
2011,08,17,09,15,17.70
2011,08,17,09,16,17.70
2011,08,17,09,17,17.80
2011,08,17,09,18,17.90
2011,08,17,09,19,17.90
2011,08,17,09,20,17.90
2011,08,17,09,21,18.00
2011,08,17,09,22,18.10
2011,08,17,09,23,18.10
2011,08,17,09,24,18.20
2011,08,17,09,25,18.20
2011,08,17,09,26,18.30
2011,08,17,09,27,18.40
2011,08,17,09,28,18.40
2011,08,17,09,29,18.50
2011,08,17,09,30,18.50
2011,08,17,09,31,18.60
2011,08,17,09,32,18.70
2011,08,17,09,33,18.70
2011,08,17,09,34,18.80
2011,08,17,09,35,18.80
2011,08,17,09,36,18.80
2011,08,17,09,37,18.70
2011,08,17,09,38,18.70
2011,08,17,09,39,18.80
2011,08,17,09,40,18.80
2011,08,17,09,41,18.90
2011,08,17,09,42,19.00
2011,08,17,09,43,19.10
2011,08,17,09,44,19.20
2011,08,17,09,45,19.30
2011,08,17,09,46,19.40
2011,08,17,09,47,19.50
2011,08,17,09,48,19.50
2011,08,17,09,49,19.60
2011,08,17,09,50,19.70
2011,08,17,09,51,19.70
2011,08,17,09,52,19.80
2011,08,17,09,53,19.80
2011,08,17,09,54,19.90
2011,08,17,09,55,19.90
2011,08,17,09,56,19.90
2011,08,17,09,57,19.90
2011,08,17,09,58,19.90
2011,08,17,09,59,19.90
2011,08,17,10,00,19.90
2011,08,17,10,01,19.90
2011,08,17,10,02,19.90
2011,08,17,10,03,20.10
2011,08,17,10,04,20.10
2011,08,17,10,05,20.20
2011,08,17,10,06,20.20
2011,08,17,10,07,20.10
2011,08,17,10,08,20.10
2011,08,17,10,09,20.10
2011,08,17,10,10,20.10
2011,08,17,10,11,20.00
2011,08,17,10,12,19.90
2011,08,17,10,13,19.90
2011,08,17,10,14,19.90
2011,08,17,10,15,19.90
2011,08,17,10,16,19.90
2011,08,17,10,17,19.90
2011,08,17,10,18,19.90
2011,08,17,10,19,19.90
2011,08,17,10,20,19.80
2011,08,17,10,21,19.80
2011,08,17,10,22,19.80
2011,08,17,10,23,19.80
2011,08,17,10,24,19.80
2011,08,17,10,25,19.80
2011,08,17,10,26,19.90
2011,08,17,10,27,20.00
2011,08,17,10,28,20.10
2011,08,17,10,29,20.20
2011,08,17,10,30,20.40
2011,08,17,10,31,20.50
2011,08,17,10,32,20.50
2011,08,17,10,33,20.60
2011,08,17,10,34,20.50
2011,08,17,10,35,20.50
2011,08,17,10,36,20.60
2011,08,17,10,37,20.60
2011,08,17,10,38,20.70
2011,08,17,10,39,20.70
2011,08,17,10,40,20.80
2011,08,17,10,41,20.70
2011,08,17,10,42,20.70
2011,08,17,10,43,20.70
2011,08,17,10,44,20.70
2011,08,17,10,45,20.60
2011,08,17,10,46,20.60
2011,08,17,10,47,20.50
2011,08,17,10,48,20.40
2011,08,17,10,49,20.50
2011,08,17,10,50,20.50
2011,08,17,10,51,20.60
2011,08,17,10,52,20.70
2011,08,17,10,53,20.60
2011,08,17,10,54,20.60
2011,08,17,10,55,20.70
2011,08,17,10,56,20.60
2011,08,17,10,57,20.70
2011,08,17,10,58,20.70
2011,08,17,10,59,20.70
2011,08,17,11,00,20.70
2011,08,17,11,01,20.70
2011,08,17,11,02,20.70
2011,08,17,11,03,20.70
2011,08,17,11,04,20.70
2011,08,17,11,05,20.70
2011,08,17,11,06,20.70
2011,08,17,11,07,20.70
2011,08,17,11,08,20.70
2011,08,17,11,09,20.80
2011,08,17,11,10,20.80
2011,08,17,11,11,20.90
2011,08,17,11,12,20.90
2011,08,17,11,13,20.90
2011,08,17,11,14,20.90
2011,08,17,11,15,20.90
2011,08,17,11,16,20.90
2011,08,17,11,17,20.90
2011,08,17,11,18,20.90
2011,08,17,11,19,20.90
2011,08,17,11,20,21.00
2011,08,17,11,21,21.00
2011,08,17,11,22,21.00
2011,08,17,11,23,21.10
2011,08,17,11,24,21.20
2011,08,17,11,25,21.20
2011,08,17,11,26,21.10
2011,08,17,11,27,21.00
2011,08,17,11,28,20.80
2011,08,17,11,29,20.70
2011,08,17,11,30,20.70
2011,08,17,11,31,20.70
2011,08,17,11,32,20.70
2011,08,17,11,33,20.70
2011,08,17,11,34,20.80
2011,08,17,11,35,20.80
2011,08,17,11,36,20.80
2011,08,17,11,37,20.80
2011,08,17,11,38,20.80
2011,08,17,11,39,20.90
2011,08,17,11,40,20.90
2011,08,17,11,41,20.90
2011,08,17,11,42,20.90
2011,08,17,11,43,21.00
2011,08,17,11,44,21.10
2011,08,17,11,45,21.30
2011,08,17,11,46,21.40
2011,08,17,11,47,21.60
2011,08,17,11,48,21.60
2011,08,17,11,49,21.60
2011,08,17,11,50,21.60
2011,08,17,11,51,21.60
2011,08,17,11,52,21.60
2011,08,17,11,53,21.60
2011,08,17,11,54,21.60
2011,08,17,11,55,21.60
2011,08,17,11,56,21.60
2011,08,17,11,57,21.70
2011,08,17,11,58,21.80
2011,08,17,11,59,21.90
2011,08,17,12,00,22.00
2011,08,17,12,01,22.10
2011,08,17,12,02,22.10
2011,08,17,12,03,22.10
2011,08,17,12,04,22.20
2011,08,17,12,05,22.20
2011,08,17,12,06,22.10
2011,08,17,12,07,22.10
2011,08,17,12,08,22.10
2011,08,17,12,09,22.10
2011,08,17,12,10,22.00
2011,08,17,12,11,22.00
2011,08,17,12,12,22.00
2011,08,17,12,13,21.90
2011,08,17,12,14,21.80
2011,08,17,12,15,21.70
2011,08,17,12,16,21.70
2011,08,17,12,17,21.70
2011,08,17,12,18,21.70
2011,08,17,12,19,21.80
2011,08,17,12,20,21.80
2011,08,17,12,21,21.80
2011,08,17,12,22,21.80
2011,08,17,12,23,21.80
2011,08,17,12,24,21.80
2011,08,17,12,25,21.70
2011,08,17,12,26,21.70
2011,08,17,12,27,21.70
2011,08,17,12,28,21.70
2011,08,17,12,29,21.80
2011,08,17,12,30,21.80
2011,08,17,12,31,21.90
2011,08,17,12,32,21.90
2011,08,17,12,33,21.90
2011,08,17,12,34,22.00
2011,08,17,12,35,22.10
2011,08,17,12,36,22.20
2011,08,17,12,37,22.30
2011,08,17,12,38,22.30
2011,08,17,12,39,22.40
2011,08,17,12,40,22.40
2011,08,17,12,41,22.50
2011,08,17,12,42,22.50
2011,08,17,12,43,22.50
2011,08,17,12,44,22.40
2011,08,17,12,45,22.40
2011,08,17,12,46,22.40
2011,08,17,12,47,22.40
2011,08,17,12,48,22.50
2011,08,17,12,49,22.60
2011,08,17,12,50,22.70
2011,08,17,12,51,22.80
2011,08,17,12,52,22.80
2011,08,17,12,53,22.90
2011,08,17,12,54,22.90
2011,08,17,12,55,22.90
2011,08,17,12,56,22.80
2011,08,17,12,57,22.70
2011,08,17,12,58,22.60
2011,08,17,12,59,22.70
2011,08,17,13,00,22.70
2011,08,17,13,01,22.70
2011,08,17,13,02,22.70
2011,08,17,13,03,22.70
2011,08,17,13,04,22.60
2011,08,17,13,05,22.60
2011,08,17,13,06,22.50
2011,08,17,13,07,22.50
2011,08,17,13,08,22.50
2011,08,17,13,09,22.60
2011,08,17,13,10,22.70
2011,08,17,13,11,22.80
2011,08,17,13,12,22.90
2011,08,17,13,13,23.00
2011,08,17,13,14,23.10
2011,08,17,13,15,23.10
2011,08,17,13,16,23.10
2011,08,17,13,17,23.10
2011,08,17,13,18,23.10
2011,08,17,13,19,23.10
2011,08,17,13,20,23.00
2011,08,17,13,21,22.90
2011,08,17,13,22,22.90
2011,08,17,13,23,22.90
2011,08,17,13,24,22.90
2011,08,17,13,25,23.10
2011,08,17,13,26,23.20
2011,08,17,13,27,23.30
2011,08,17,13,28,23.30
2011,08,17,13,29,23.30
2011,08,17,13,30,23.40
2011,08,17,13,31,23.40
2011,08,17,13,32,23.50
2011,08,17,13,33,23.60
2011,08,17,13,34,23.70
2011,08,17,13,35,23.70
2011,08,17,13,36,23.70
2011,08,17,13,37,23.70
2011,08,17,13,38,23.80
2011,08,17,13,39,23.80
2011,08,17,13,40,23.90
2011,08,17,13,41,23.90
2011,08,17,13,42,23.90
2011,08,17,13,43,24.00
2011,08,17,13,44,24.10
2011,08,17,13,45,24.10
2011,08,17,13,46,24.00
2011,08,17,13,47,23.90
2011,08,17,13,48,23.80
2011,08,17,13,49,23.70
2011,08,17,13,50,23.70
2011,08,17,13,51,23.60
2011,08,17,13,52,23.60
2011,08,17,13,53,23.50
2011,08,17,13,54,23.40
2011,08,17,13,55,23.30
2011,08,17,13,56,23.20
2011,08,17,13,57,23.10
2011,08,17,13,58,23.10
2011,08,17,13,59,23.00
2011,08,17,14,00,22.90
2011,08,17,14,01,22.90
2011,08,17,14,02,22.90
2011,08,17,14,03,22.90
2011,08,17,14,04,22.90
2011,08,17,14,05,22.90
2011,08,17,14,06,22.90
2011,08,17,14,07,22.90
2011,08,17,14,08,23.00
2011,08,17,14,09,23.10
2011,08,17,14,10,23.20
2011,08,17,14,11,23.20
2011,08,17,14,12,23.30
2011,08,17,14,13,23.30
2011,08,17,14,14,23.40
2011,08,17,14,15,23.50
2011,08,17,14,16,23.60
2011,08,17,14,17,23.70
2011,08,17,14,18,23.70
2011,08,17,14,19,23.80
2011,08,17,14,20,23.80
2011,08,17,14,21,23.90
2011,08,17,14,22,24.00
2011,08,17,14,23,24.10
2011,08,17,14,24,24.10
2011,08,17,14,25,24.10
2011,08,17,14,26,24.10
2011,08,17,14,27,24.10
2011,08,17,14,28,24.10
2011,08,17,14,29,24.10
2011,08,17,14,30,24.10
2011,08,17,14,31,24.10
2011,08,17,14,32,24.10
2011,08,17,14,33,24.10
2011,08,17,14,34,24.10
2011,08,17,14,35,24.00
2011,08,17,14,36,23.90
2011,08,17,14,37,23.90
2011,08,17,14,38,23.90
2011,08,17,14,39,23.90
2011,08,17,14,40,23.90
2011,08,17,14,41,23.90
2011,08,17,14,42,23.90
2011,08,17,14,43,23.90
2011,08,17,14,44,23.90
2011,08,17,14,45,23.90
2011,08,17,14,46,24.00
2011,08,17,14,47,24.00
2011,08,17,14,48,23.90
2011,08,17,14,49,23.80
2011,08,17,14,50,23.80
2011,08,17,14,51,23.70
2011,08,17,14,52,23.70
2011,08,17,14,53,23.80
2011,08,17,14,54,23.80
2011,08,17,14,55,23.90
2011,08,17,14,56,24.00
2011,08,17,14,57,24.10
2011,08,17,14,58,24.10
2011,08,17,14,59,24.20
2011,08,17,15,00,24.30
2011,08,17,15,01,24.40
2011,08,17,15,02,24.40
2011,08,17,15,03,24.50
2011,08,17,15,04,24.50
2011,08,17,15,05,24.50
2011,08,17,15,06,24.40
2011,08,17,15,07,24.30
2011,08,17,15,08,24.20
2011,08,17,15,09,24.10
2011,08,17,15,10,24.10
2011,08,17,15,11,24.10
2011,08,17,15,12,24.10
2011,08,17,15,13,23.90
2011,08,17,15,14,23.80
2011,08,17,15,15,23.80
2011,08,17,15,16,23.80
2011,08,17,15,17,23.80
2011,08,17,15,18,23.80
2011,08,17,15,19,23.70
2011,08,17,15,20,23.70
2011,08,17,15,21,23.60
2011,08,17,15,22,23.40
2011,08,17,15,23,23.30
2011,08,17,15,24,23.30
2011,08,17,15,25,23.30
2011,08,17,15,26,23.30
2011,08,17,15,27,23.30
2011,08,17,15,28,23.30
2011,08,17,15,29,23.30
2011,08,17,15,30,23.30
2011,08,17,15,31,23.30
2011,08,17,15,32,23.30
2011,08,17,15,33,23.40
2011,08,17,15,34,23.40
2011,08,17,15,35,23.50
2011,08,17,15,36,23.60
2011,08,17,15,37,23.60
2011,08,17,15,38,23.60
2011,08,17,15,39,23.60
2011,08,17,15,40,23.60
2011,08,17,15,41,23.40
2011,08,17,15,42,23.40
2011,08,17,15,43,23.30
2011,08,17,15,44,23.20
2011,08,17,15,45,23.10
2011,08,17,15,46,23.00
2011,08,17,15,47,22.80
2011,08,17,15,48,22.60
2011,08,17,15,49,22.50
2011,08,17,15,50,22.40
2011,08,17,15,51,22.40
2011,08,17,15,52,22.30
2011,08,17,15,53,22.30
2011,08,17,15,54,22.30
2011,08,17,15,55,22.30
2011,08,17,15,56,22.20
2011,08,17,15,57,22.20
2011,08,17,15,58,22.10
2011,08,17,15,59,22.00
2011,08,17,16,00,21.90
2011,08,17,16,01,21.90
2011,08,17,16,02,21.80
2011,08,17,16,03,21.70
2011,08,17,16,04,21.70
2011,08,17,16,05,21.60
2011,08,17,16,06,21.60
2011,08,17,16,07,21.60
2011,08,17,16,08,21.50
2011,08,17,16,09,21.40
2011,08,17,16,10,21.30
2011,08,17,16,11,21.30
2011,08,17,16,12,21.20
2011,08,17,16,13,21.10
2011,08,17,16,14,21.00
2011,08,17,16,15,21.00
2011,08,17,16,16,20.90
2011,08,17,16,17,20.80
2011,08,17,16,18,20.70
2011,08,17,16,19,20.70
2011,08,17,16,20,20.60
2011,08,17,16,21,20.50
2011,08,17,16,22,20.50
2011,08,17,16,23,20.50
2011,08,17,16,24,20.40
2011,08,17,16,25,20.40
2011,08,17,16,26,20.30
2011,08,17,16,27,20.30
2011,08,17,16,28,20.30
2011,08,17,16,29,20.30
2011,08,17,16,30,20.30
2011,08,17,16,31,20.30
2011,08,17,16,32,20.30
2011,08,17,16,33,20.30
2011,08,17,16,34,20.30
2011,08,17,16,35,20.30
2011,08,17,16,36,20.30
2011,08,17,16,37,20.30
2011,08,17,16,38,20.40
2011,08,17,16,39,20.40
2011,08,17,16,40,20.40
2011,08,17,16,41,20.40
2011,08,17,16,42,20.40
2011,08,17,16,43,20.40
2011,08,17,16,44,20.40
2011,08,17,16,45,20.40
2011,08,17,16,46,20.40
2011,08,17,16,47,20.30
2011,08,17,16,48,20.40
2011,08,17,16,49,20.40
2011,08,17,16,50,20.40
2011,08,17,16,51,20.40
2011,08,17,16,52,20.40
2011,08,17,16,53,20.30
2011,08,17,16,54,20.30
2011,08,17,16,55,20.30
2011,08,17,16,56,20.30
2011,08,17,16,57,20.30
2011,08,17,16,58,20.30
2011,08,17,16,59,20.30
2011,08,17,17,00,20.30
2011,08,17,17,01,20.30
2011,08,17,17,02,20.30
2011,08,17,17,03,20.30
2011,08,17,17,04,20.30
2011,08,17,17,05,20.30
2011,08,17,17,06,20.30
2011,08,17,17,07,20.30
2011,08,17,17,08,20.30
2011,08,17,17,09,20.30
2011,08,17,17,10,20.30
2011,08,17,17,11,20.30
2011,08,17,17,12,20.30
2011,08,17,17,13,20.30
2011,08,17,17,14,20.30
2011,08,17,17,15,20.30
2011,08,17,17,16,20.30
2011,08,17,17,17,20.30
2011,08,17,17,18,20.30
2011,08,17,17,19,20.20
2011,08,17,17,20,20.20
2011,08,17,17,21,20.20
2011,08,17,17,22,20.20